Snowfall_Accumulation
0.0 0.0 0.0 0.0 0.0 0.0 0.0 0.0 0.0 0.0 0.0 0.0 0.0 0.0 0.0 0.0 0.0 0.0 0.0 0.0 0.0 0.0 0.0 0.0 0.0 0.0 0.0 0.0 0.0 0.0 0.0 0.0 0.0 0.0 0.0 0.0 0.0 0.0 0.0 0.0 0.0 0.0 0.0
0.0 0.0 0.0 0.0 0.0 0.0 0.0 0.0 0.0 0.0 0.0 0.0 0.0 0.0 0.0 0.0 0.0 0.0 0.0 0.0 0.0 0.0 0.0 0.0 0.0 0.0 0.0 0.0 0.0 0.0 0.0 0.0 0.0 0.0 0.0 0.0 0.0 0.0 0.0 0.0 0.0 0.0 0.0
0.0 0.0 0.0 0.0 0.0 0.0 0.0 0.0 0.0 0.0 0.0 0.0 0.0 0.0 0.0 0.0 0.0 0.0 0.0 0.0 0.0 0.0 0.0 0.0 0.0 0.0 0.0 0.0 0.0 0.0 0.0 0.0 0.0 0.0 0.0 0.0 0.0 0.0 0.0 0.0 0.0 0.0 0.0
0.0 0.0 0.0 0.0 0.0 0.0 0.0 0.0 0.0 0.0 0.0 0.0 0.0 0.0 0.0 0.0 0.0 0.0 0.0 0.0 0.0 0.0 0.0 0.0 0.0 0.0 0.0 0.0 0.0 0.0 0.0 0.0 0.0 0.0 0.0 0.0 0.1 0.3 0.1 0.3 0.5 0.4 0.4
0.0 0.0 0.0 0.0 0.0 0.0 0.0 0.0 0.0 0.0 0.0 0.0 0.0 0.0 0.0 0.0 0.0 0.0 0.0 0.0 0.0 0.0 0.0 0.0 0.0 0.0 nan nan 0.0 0.0 0.0 0.0 0.0 0.0 0.1 0.2 0.4 0.7 0.5 0.5 0.8 1.0 1.0
0.0 0.0 0.0 0.0 0.0 0.0 0.0 0.0 0.0 0.0 0.0 0.0 0.0 0.0 0.0 0.0 nan nan 0.0 0.0 0.0 0.0 0.0 0.0 0.0 0.0 0.0 nan nan nan nan 0.0 0.0 0.1 0.1 0.1 0.0 0.3 0.5 0.8 1.0 2.5 2.3
0.0 0.0 0.0 0.0 0.0 0.0 0.0 0.0 0.0 0.0 0.0 0.0 0.0 0.0 0.0 0.0 nan nan nan 0.0 0.0 0.0 0.0 0.0 0.0 0.0 0.0 0.0 nan nan nan nan nan 0.0 0.0 0.0 0.0 0.0 0.0 0.6 0.5 0.8 1.0
0.0 0.0 0.0 0.0 0.0 0.0 0.0 0.0 0.0 0.0 0.0 0.0 0.0 0.0 0.0 0.0 nan nan nan 0.0 0.0 0.0 0.0 0.0 0.0 0.0 0.0 0.0 0.0 0.0 0.0 0.0 0.0 0.0 0.0 0.0 0.0 0.0 0.0 0.0 0.0 0.5 1.5
0.0 0.0 0.0 0.0 0.0 0.0 0.0 0.0 0.0 0.0 0.0 0.0 0.0 0.0 0.0 0.0 nan nan 0.0 0.0 0.0 0.0 0.0 0.0 0.0 0.0 nan nan 0.0 0.0 0.1 0.0 nan nan nan nan nan nan nan 0.4 4.0 5.0 4.7
0.0 0.0 0.0 0.0 0.0 0.0 0.0 0.0 0.1 0.0 0.1 0.3 0.0 0.0 0.0 0.0 nan nan nan 0.2 0.0 0.3 0.1 0.0 0.0 0.0 nan nan 0.0 0.1 0.2 0.1 0.1 0.2 0.1 0.0 nan nan nan 0.0 0.5 3.3 3.7
0.1 0.1 0.1 0.0 0.0 0.0 0.0 0.1 0.0 0.1 0.1 0.1 0.1 0.1 0.1 0.0 0.0 nan nan 0.1 0.3 0.5 0.5 0.6 0.4 nan nan nan nan 0.0 0.1 0.1 0.4 0.6 0.8 1.0 0.6 0.4 0.6 0.4 0.1 0.5 2.6
0.1 0.1 0.1 0.1 0.1 0.0 0.1 0.1 0.2 0.1 0.1 0.2 0.2 0.5 0.7 0.1 nan nan nan nan nan 0.3 0.3 0.7 0.5 nan nan nan 0.2 nan nan 0.4 1.6 2.4 2.3 2.4 2.2 2.3 2.0 1.5 0.8 1.1 1.7
0.4 0.7 0.6 0.6 0.3 0.2 0.1 0.1 0.8 0.2 0.6 0.2 0.8 0.8 0.7 0.9 0.6 nan nan nan nan 0.7 0.7 0.5 nan nan nan nan nan nan 0.0 1.3 1.9 3.4 2.4 1.9 2.0 2.8 2.6 3.6 3.0 3.3 3.3
0.7 0.5 0.4 0.3 0.3 0.3 0.9 0.7 0.8 0.9 0.9 1.1 1.2 1.1 0.9 1.1 1.0 0.8 0.9 0.5 0.2 1.0 nan 0.8 nan 0.7 nan nan 1.0 0.9 1.6 1.5 1.7 2.0 2.3 2.9 3.2 4.4 5.1 3.9 5.7 6.1 8.4
0.5 0.4 0.3 0.6 0.2 0.4 0.6 0.8 0.8 0.3 0.7 1.2 1.5 1.1 1.7 2.1 1.5 0.6 1.3 1.8 1.6 1.8 2.3 3.6 3.4 2.7 2.9 2.9 3.7 3.4 3.4 3.6 3.8 4.4 5.5 5.6 5.8 5.9 6.6 5.7 6.3 8.6 9.5
0.4 1.1 0.8 0.8 0.8 0.8 0.9 1.1 nan nan nan nan nan 1.1 2.4 nan nan nan nan nan nan nan 6.4 7.1 4.4 3.8 3.3 3.7 4.6 5.0 5.0 4.2 4.3 5.1 5.9 5.9 6.9 6.9 7.5 10.0 7.7 8.5 10.6
0.4 0.3 1.0 1.1 0.9 1.2 1.6 1.5 2.3 1.7 nan nan nan nan nan nan nan nan nan nan nan nan 10.2 5.8 5.3 4.2 4.4 4.2 4.6 4.9 5.8 4.8 4.5 5.7 5.4 6.4 7.1 8.1 9.0 10.2 8.2 8.1 10.4
1.2 1.6 1.3 1.3 1.2 1.5 1.7 1.8 1.8 2.3 3.3 3.0 nan nan nan nan nan nan nan nan 9.9 nan 7.8 8.2 7.5 6.3 5.7 5.6 5.3 5.6 6.2 6.7 6.3 6.2 6.5 8.1 9.2 10.2 10.8 10.1 8.9 10.1 9.3
2.1 1.8 1.7 1.8 1.9 1.8 2.3 2.3 2.2 2.6 3.0 4.0 3.9 3.9 2.5 nan nan nan nan 5.8 8.7 8.1 8.0 8.4 7.1 7.3 6.7 6.8 6.8 8.0 7.3 8.1 8.0 9.8 9.7 10.4 9.9 10.2 11.1 8.5 7.8 6.5 6.7
3.3 2.9 2.4 3.2 3.1 2.9 2.2 3.0 3.1 3.4 4.2 4.7 4.9 4.5 5.5 5.2 8.3 9.0 7.1 8.7 8.5 7.8 7.1 7.8 8.4 9.3 9.7 9.3 9.6 9.3 10.0 10.8 10.0 10.3 10.3 9.8 9.5 10.1 7.7 9.9 9.5 9.1 9.6
4.0 4.0 2.9 3.7 4.6 4.8 4.9 4.6 4.1 5.2 5.1 5.8 4.9 4.0 nan 5.1 6.5 7.3 9.0 8.4 9.1 9.9 8.4 8.5 9.4 11.5 12.4 13.8 12.0 11.7 11.2 8.1 9.8 10.7 11.2 11.3 11.3 14.1 8.9 7.0 9.3 10.3 9.9
4.5 5.2 5.5 5.9 4.7 5.5 5.8 4.1 4.6 4.8 5.3 5.4 5.0 4.8 nan 5.2 5.8 6.0 6.5 8.3 9.4 9.0 9.6 12.1 13.0 14.4 12.9 12.3 11.3 10.1 9.5 11.7 12.3 11.0 9.4 9.8 11.8 10.8 10.7 9.1 9.5 10.0 11.5
4.2 4.1 4.4 4.5 4.4 4.4 6.2 6.5 7.1 6.9 6.5 6.9 6.1 6.8 7.2 8.8 7.5 7.3 9.9 9.9 8.1 8.2 8.9 9.1 8.7 9.3 8.1 9.6 8.5 8.3 10.2 11.5 11.3 13.9 10.9 11.8 12.2 13.1 11.7 12.3 11.7 14.4 14.5
4.5 5.0 5.0 5.9 6.3 6.4 8.0 9.0 7.7 4.9 7.7 8.0 11.0 9.0 6.0 7.4 10.0 8.0 7.7 8.6 7.0 11.6 8.5 9.4 7.7 7.6 8.8 13.1 16.2 15.4 16.7 17.4 16.9 15.5 14.6 12.0 12.6 11.0 12.1 13.6 11.5 11.5 11.8
5.9 6.1 6.3 6.4 9.0 7.7 7.6 9.3 6.9 8.6 9.7 7.5 9.3 7.3 7.2 7.2 8.1 10.3 9.3 8.1 9.2 8.7 7.4 7.2 7.0 7.4 7.7 8.5 11.7 14.1 14.4 4.6 11.0 5.0 15.1 11.7 14.5 14.8 15.3 13.7 13.1 12.1 13.1
5.4 5.8 6.1 6.5 6.7 7.1 7.8 7.9 8.1 6.4 8.4 8.8 8.4 8.4 7.6 8.2 7.9 9.3 9.4 9.7 8.4 8.1 8.4 8.6 8.0 7.5 7.2 7.7 8.1 5.6 4.4 4.1 14.0 4.6 14.8 13.6 16.2 15.6 15.3 16.8 16.5 18.0 16.1
Water_Equivalent
0.00 0.00 0.00 0.00 0.00 0.00 0.00 0.00 0.00 0.00 0.00 0.00 0.00 0.00 0.00 0.00 0.00 0.00 0.00 0.00 0.00 0.00 0.00 0.00 0.00 0.00 0.00 0.00 0.00 0.00 0.00 0.00 0.00 0.00 0.00 0.00 0.00 0.00 0.00 0.00 0.00 0.00 0.00
0.00 0.00 0.00 0.00 0.00 0.00 0.00 0.00 0.00 0.00 0.00 0.00 0.00 0.00 0.00 0.00 0.00 0.00 0.00 0.00 0.00 0.00 0.00 0.00 0.00 0.00 0.00 0.00 0.00 0.00 0.00 0.00 0.00 0.00 0.00 0.00 0.00 0.00 0.00 0.00 0.00 0.00 0.00
0.00 0.00 0.00 0.00 0.00 0.00 0.00 0.00 0.00 0.00 0.00 0.00 0.00 0.00 0.00 0.00 0.00 0.00 0.00 0.00 0.00 0.00 0.00 0.00 0.00 0.00 0.00 0.00 0.00 0.00 0.00 0.00 0.00 0.00 0.00 0.00 0.00 0.00 0.00 0.01 0.00 0.00 0.00
0.00 0.00 0.00 0.00 0.00 0.00 0.00 0.00 0.00 0.00 0.00 0.00 0.00 0.00 0.00 0.00 0.00 0.00 0.00 0.00 0.00 0.00 0.00 0.00 0.00 0.00 0.00 0.00 0.00 0.00 0.00 0.00 0.00 0.00 0.00 0.01 0.04 0.11 0.05 0.11 0.21 0.16 0.17
0.00 0.00 0.00 0.00 0.00 0.00 0.00 0.00 0.00 0.00 0.00 0.00 0.00 0.00 0.00 0.00 0.00 0.00 0.00 0.00 0.00 0.00 0.00 0.00 0.00 0.00 nan nan 0.00 0.00 0.00 0.00 0.00 0.00 0.05 0.08 0.15 0.27 0.21 0.20 0.33 0.40 0.39
0.00 0.00 0.00 0.00 0.00 0.00 0.00 0.00 0.00 0.00 0.00 0.00 0.00 0.00 0.00 0.00 nan nan 0.00 0.00 0.00 0.00 0.00 0.00 0.00 0.00 0.00 nan nan nan nan 0.00 0.00 0.04 0.05 0.04 0.00 0.11 0.20 0.31 0.41 1.01 0.88
0.00 0.00 0.00 0.00 0.00 0.00 0.00 0.00 0.00 0.00 0.00 0.00 0.00 0.00 0.00 0.00 nan nan nan 0.00 0.00 0.00 0.00 0.00 0.00 0.00 0.00 0.00 nan nan nan nan nan 0.00 0.00 0.01 0.00 0.00 0.01 0.25 0.18 0.32 0.38
0.00 0.00 0.00 0.00 0.01 0.01 0.01 0.00 0.00 0.00 0.00 0.00 0.00 0.00 0.00 0.00 nan nan nan 0.00 0.00 0.00 0.00 0.00 0.00 0.00 0.00 0.00 0.00 0.00 0.00 0.00 0.00 0.00 0.00 0.00 0.00 0.00 0.00 0.00 0.02 0.17 0.57
0.00 0.00 0.00 0.00 0.01 0.01 0.00 0.00 0.00 0.00 0.00 0.00 0.00 0.00 0.00 0.00 nan nan 0.00 0.00 0.00 0.00 0.00 0.00 0.00 0.00 nan nan 0.00 0.01 0.03 0.02 nan nan nan nan nan nan nan 0.16 1.58 1.99 1.46
0.01 0.00 0.00 0.00 0.00 0.00 0.01 0.01 0.02 0.01 0.02 0.12 0.02 0.02 0.00 0.00 nan nan nan 0.06 0.01 0.12 0.02 0.02 0.01 0.00 nan nan 0.00 0.02 0.07 0.04 0.04 0.08 0.04 0.01 nan nan nan 0.00 0.19 1.33 1.16
0.03 0.03 0.02 0.01 0.01 0.00 0.01 0.02 0.02 0.03 0.03 0.03 0.04 0.04 0.03 0.01 0.00 nan nan 0.03 0.10 0.20 0.22 0.25 0.17 nan nan nan nan 0.02 0.02 0.04 0.16 0.26 0.33 0.41 0.25 0.16 0.25 0.15 0.05 0.20 0.99
0.05 0.05 0.05 0.05 0.02 0.01 0.03 0.04 0.07 0.03 0.04 0.07 0.07 0.20 0.29 0.04 nan nan nan nan nan 0.13 0.13 0.27 0.19 nan nan nan 0.06 nan nan 0.15 0.65 0.96 0.92 0.92 0.80 0.80 0.70 0.52 0.25 0.35 0.48
0.13 0.28 0.23 0.22 0.13 0.07 0.04 0.06 0.32 0.06 0.25 0.07 0.33 0.32 0.29 0.36 0.25 nan nan nan nan 0.30 0.27 0.22 nan nan nan nan nan nan 0.00 0.53 0.78 1.25 0.85 0.64 0.66 0.82 0.82 0.99 0.77 0.87 0.82
0.27 0.18 0.13 0.10 0.12 0.14 0.34 0.29 0.33 0.35 0.36 0.43 0.48 0.44 0.37 0.44 0.38 0.33 0.37 0.22 0.10 0.39 nan 0.32 nan 0.28 nan nan 0.37 0.38 0.61 0.56 0.60 0.68 0.75 0.83 0.91 1.26 1.42 1.08 1.43 1.46 1.98
0.16 0.12 0.12 0.22 0.10 0.15 0.22 0.30 0.30 0.12 0.27 0.50 0.59 0.45 0.70 0.83 0.59 0.26 0.51 0.74 0.65 0.72 0.87 1.45 1.34 1.03 1.02 1.01 1.28 1.15 1.15 1.18 1.18 1.36 1.54 1.50 1.55 1.59 1.65 1.51 1.62 2.01 2.09
0.12 0.37 0.31 0.30 0.31 0.30 0.34 0.41 nan nan nan nan nan 0.44 0.95 nan nan nan nan nan nan nan 2.55 2.76 1.53 1.34 1.10 1.19 1.44 1.51 1.53 1.31 1.32 1.55 1.72 1.66 1.81 1.77 1.85 2.20 1.97 2.12 2.28
0.13 0.11 0.37 0.37 0.35 0.44 0.56 0.56 0.76 0.67 nan nan nan nan nan nan nan nan nan nan nan nan 4.07 2.25 1.92 1.45 1.47 1.37 1.50 1.55 1.60 1.38 1.45 1.63 1.54 1.72 1.87 2.13 2.29 2.26 1.97 1.90 2.44
0.34 0.53 0.48 0.46 0.45 0.54 0.60 0.64 0.66 0.80 1.07 0.98 nan nan nan nan nan nan nan nan 3.89 nan 3.10 3.20 2.76 2.26 1.95 1.80 1.65 1.65 1.72 1.79 1.65 1.66 1.75 2.22 2.52 2.76 2.73 2.53 2.18 2.55 2.35
0.61 0.58 0.56 0.62 0.65 0.63 0.77 0.76 0.73 0.83 0.93 1.24 1.32 1.42 0.92 nan nan nan nan 2.32 3.34 3.02 2.98 3.11 2.57 2.49 2.19 2.22 2.16 2.39 2.08 2.16 2.12 2.69 2.67 2.89 2.69 2.83 2.89 2.16 1.89 1.80 1.86
0.91 0.94 0.78 0.99 0.95 0.88 0.69 0.90 0.92 0.97 1.18 1.37 1.47 1.42 2.12 2.03 3.06 3.27 2.57 3.33 3.16 2.83 2.56 2.82 3.01 3.33 3.33 3.05 3.05 2.84 2.90 3.04 2.73 2.79 2.78 2.65 2.51 2.72 1.95 2.60 2.38 2.18 2.35
1.17 1.14 0.96 1.06 1.35 1.38 1.45 1.27 1.13 1.49 1.45 1.63 1.39 1.39 nan 1.66 2.03 2.29 2.80 2.62 2.93 3.20 2.65 2.89 3.14 4.02 4.15 4.59 3.79 3.61 3.38 2.23 2.72 2.97 3.18 3.11 3.02 3.85 2.31 1.65 2.32 2.59 2.49
1.27 1.47 1.53 1.63 1.27 1.44 1.56 1.10 1.25 1.28 1.26 1.22 1.16 1.34 nan 1.39 1.56 1.67 1.82 2.47 2.85 2.78 3.12 3.84 3.84 4.24 3.75 3.49 3.18 2.96 2.47 2.96 3.25 3.07 2.52 2.61 3.18 2.81 2.82 2.04 2.13 1.94 2.56
1.13 1.04 1.12 1.15 1.15 1.34 1.57 1.75 1.62 1.57 1.47 1.61 1.46 1.57 1.72 2.08 1.73 1.61 2.50 2.69 2.13 2.01 2.25 2.37 2.21 2.23 2.01 2.38 2.08 2.02 2.27 2.61 2.68 3.73 2.52 2.69 2.68 3.12 2.85 2.61 2.32 2.66 2.56
1.16 1.24 1.20 1.47 1.42 1.36 1.71 1.90 1.63 1.47 1.69 1.75 2.63 2.11 1.26 1.56 2.24 1.65 1.61 1.99 1.60 2.96 2.00 2.17 1.71 1.68 1.92 3.12 4.10 4.00 4.35 4.59 4.43 3.98 3.64 2.44 2.46 2.26 2.28 2.66 2.11 2.10 1.81
1.38 1.29 1.35 1.31 1.98 1.61 1.56 1.91 1.31 1.77 2.06 1.54 1.98 1.44 1.44 1.37 1.55 2.19 1.96 1.56 1.79 1.64 1.39 1.38 1.41 1.53 1.61 1.76 2.54 3.35 3.57 1.53 2.71 1.66 3.26 2.27 2.75 2.79 2.71 2.37 2.21 1.93 1.79
1.12 1.21 1.25 1.31 1.32 1.43 1.53 1.48 1.53 1.18 1.60 1.73 1.61 1.64 1.40 1.44 1.43 1.76 1.67 1.70 1.38 1.38 1.45 1.55 1.49 1.38 1.32 1.46 1.62 1.68 1.45 1.35 2.99 1.53 2.87 2.43 2.73 2.46 2.40 2.49 2.36 2.32 1.93
SL_Ratio
nan nan nan nan nan nan nan nan nan nan nan nan nan nan nan nan nan nan nan nan nan nan nan nan nan nan nan nan nan nan nan nan nan nan nan nan nan nan nan nan nan nan nan
nan nan nan nan nan nan nan nan nan nan nan nan nan nan nan nan nan nan nan nan nan nan nan nan nan nan nan nan nan nan nan nan nan nan nan nan nan nan nan nan nan nan nan
nan nan nan nan nan nan nan nan nan nan nan nan nan nan nan nan nan nan nan nan nan nan nan nan nan nan nan nan nan nan nan nan nan nan nan nan nan nan 0.0 2.5 nan nan nan
nan nan nan nan nan nan nan nan nan nan nan nan nan nan nan nan nan nan nan nan nan nan nan nan nan nan nan nan nan nan nan nan nan nan 2.5 2.3 2.5 2.5 2.5 2.5 2.5 2.5 2.5
nan nan nan nan nan nan nan nan nan nan nan nan nan nan nan nan nan nan nan nan nan nan nan nan nan nan nan nan nan nan nan nan nan 2.1 2.5 2.5 2.5 2.5 2.5 2.5 2.5 2.5 2.5
nan nan nan nan nan nan nan nan nan nan nan nan nan nan nan nan nan nan nan nan nan nan nan nan nan nan nan nan nan nan nan nan nan 2.5 2.5 2.5 2.1 2.5 2.5 2.5 2.5 2.5 2.6
nan nan nan 1.7 nan nan nan nan nan nan nan nan nan nan nan nan nan nan nan nan nan nan nan nan nan nan nan nan nan nan nan nan nan nan nan 2.5 2.5 nan 2.6 2.5 2.5 2.5 2.5
nan nan nan nan 2.5 2.5 2.4 nan nan nan nan nan nan nan nan nan nan nan nan nan nan nan nan nan nan nan nan nan nan nan nan nan nan nan nan nan nan nan nan nan 2.5 2.6 2.7
nan nan nan nan 2.5 2.5 2.5 5.0 0.0 nan nan nan nan nan nan nan nan nan nan nan nan nan nan nan nan nan nan nan nan 2.6 2.4 2.5 nan nan nan nan nan nan nan 2.5 2.5 2.5 3.2
2.5 2.9 nan nan nan nan 2.5 2.5 2.5 2.4 2.6 2.5 2.6 2.5 3.0 5.0 nan nan nan 2.5 2.5 2.5 2.4 2.5 2.7 nan nan nan 0.0 2.6 2.5 2.5 2.5 2.5 2.5 2.8 nan nan nan nan 2.5 2.5 3.1
2.5 2.5 2.6 2.4 2.5 nan 2.7 2.6 2.4 2.6 2.5 2.5 2.5 2.5 2.5 2.5 nan nan nan 2.5 2.5 2.5 2.5 2.5 2.5 nan nan nan nan 2.6 2.4 2.5 2.5 2.5 2.5 2.5 2.5 2.5 2.5 2.5 2.5 2.5 2.6
2.7 2.6 2.5 2.5 2.6 2.7 2.5 2.5 2.5 2.5 2.5 2.5 2.5 2.5 2.5 2.5 nan nan nan nan nan 2.5 2.5 2.5 2.5 nan nan nan 2.5 nan nan 2.6 2.5 2.5 2.5 2.6 2.7 2.8 2.8 2.9 3.1 3.1 3.4
2.8 2.7 2.5 2.6 2.5 2.5 2.5 2.5 2.5 2.5 2.5 2.5 2.5 2.5 2.5 2.5 2.5 nan nan nan nan 2.5 2.5 2.5 nan nan nan nan nan nan nan 2.5 2.5 2.7 2.8 3.0 3.0 3.4 3.1 3.6 3.9 3.8 4.0
2.5 2.9 2.9 2.6 2.6 2.5 2.5 2.5 2.5 2.5 2.5 2.5 2.5 2.5 2.5 2.6 2.5 2.5 2.5 2.5 2.5 2.5 nan 2.5 nan 2.5 nan nan 2.6 2.5 2.6 2.6 2.8 2.9 3.1 3.5 3.5 3.5 3.6 3.6 4.0 4.2 4.3
2.8 3.3 2.9 2.6 2.5 2.6 2.8 2.5 2.5 2.5 2.5 2.5 2.5 2.5 2.5 2.5 2.5 2.5 2.5 2.5 2.5 2.5 2.6 2.5 2.6 2.7 2.8 2.9 2.9 3.0 3.0 3.1 3.2 3.2 3.6 3.7 3.7 3.7 4.0 3.8 3.9 4.3 4.6
3.3 3.1 2.6 2.5 2.5 2.6 2.6 2.6 nan nan nan nan nan 2.5 2.5 nan nan nan nan nan nan nan 2.5 2.6 2.9 2.9 3.0 3.1 3.2 3.3 3.3 3.2 3.2 3.3 3.4 3.6 3.8 3.9 4.1 4.6 3.9 4.0 4.6
3.0 3.1 2.8 2.9 2.7 2.8 2.8 2.6 3.0 2.5 nan nan nan nan nan nan nan nan nan nan nan nan 2.5 2.6 2.7 2.9 3.0 3.0 3.1 3.1 3.7 3.4 3.1 3.5 3.5 3.8 3.8 3.8 3.9 4.5 4.2 4.2 4.3
3.4 3.0 2.8 2.8 2.6 2.8 2.8 2.8 2.8 2.8 3.1 3.1 nan nan nan nan nan nan nan nan 2.5 nan 2.5 2.6 2.7 2.8 2.9 3.1 3.2 3.4 3.6 3.8 3.8 3.8 3.7 3.7 3.7 3.7 4.0 4.0 4.1 4.0 4.0
3.5 3.1 3.1 2.9 2.9 2.9 2.9 3.1 3.0 3.1 3.3 3.3 3.0 2.8 2.8 nan nan nan nan 2.5 2.6 2.7 2.7 2.7 2.8 2.9 3.1 3.0 3.2 3.3 3.5 3.7 3.8 3.6 3.6 3.6 3.7 3.6 3.8 4.0 4.1 3.6 3.6
3.6 3.1 3.1 3.3 3.3 3.3 3.2 3.4 3.4 3.5 3.6 3.4 3.3 3.2 2.6 2.6 2.7 2.7 2.8 2.6 2.7 2.7 2.8 2.8 2.8 2.8 2.9 3.0 3.1 3.3 3.5 3.5 3.7 3.7 3.7 3.7 3.8 3.7 4.0 3.8 4.0 4.2 4.1
3.4 3.5 3.0 3.5 3.4 3.5 3.4 3.6 3.6 3.5 3.5 3.5 3.5 2.9 nan 3.0 3.2 3.2 3.2 3.2 3.1 3.1 3.2 3.0 3.0 2.9 3.0 3.0 3.2 3.2 3.3 3.6 3.6 3.6 3.5 3.6 3.7 3.7 3.8 4.2 4.0 4.0 4.0
3.5 3.5 3.6 3.6 3.7 3.8 3.7 3.7 3.7 3.7 4.2 4.4 4.3 3.6 nan 3.7 3.7 3.6 3.6 3.4 3.3 3.2 3.1 3.1 3.4 3.4 3.4 3.5 3.6 3.4 3.8 3.9 3.8 3.6 3.7 3.8 3.7 3.8 3.8 4.5 4.5 5.2 4.5
3.8 4.0 3.9 3.9 3.9 3.3 4.0 3.7 4.4 4.4 4.4 4.3 4.2 4.3 4.2 4.2 4.4 4.5 4.0 3.7 3.8 4.1 3.9 3.8 3.9 4.1 4.0 4.0 4.1 4.1 4.5 4.4 4.2 3.7 4.3 4.4 4.5 4.2 4.1 4.7 5.0 5.4 5.7
3.9 4.0 4.1 4.0 4.4 4.7 4.7 4.7 4.7 3.3 4.6 4.6 4.2 4.3 4.8 4.7 4.4 4.8 4.8 4.3 4.4 3.9 4.2 4.3 4.5 4.5 4.6 4.2 4.0 3.9 3.8 3.8 3.8 3.9 4.0 4.9 5.1 4.9 5.3 5.1 5.4 5.5 6.5
4.2 4.7 4.7 4.9 4.5 4.8 4.9 4.9 5.2 4.9 4.7 4.9 4.7 5.1 5.0 5.2 5.3 4.7 4.8 5.2 5.2 5.3 5.3 5.2 5.0 4.8 4.8 4.9 4.6 4.2 4.0 3.0 4.1 3.0 4.6 5.2 5.3 5.3 5.7 5.8 5.9 6.3 7.3
4.8 4.8 4.9 4.9 5.1 5.0 5.1 5.3 5.3 5.5 5.3 5.1 5.2 5.1 5.5 5.7 5.5 5.3 5.6 5.7 6.1 5.9 5.8 5.6 5.4 5.4 5.5 5.2 5.0 3.3 3.0 3.0 4.7 3.0 5.2 5.6 5.9 6.3 6.4 6.7 7.0 7.8 8.3